Content
SEND FEEDBACK

Daily
Averages
Monthly
Summary
United States of America

SUTHERLIN, OREGON


Home > North America > United States > Oregon
Elevation: 550 feet     Latitude: 43 24N     Longitude: 123 16W

WEATHER
 
SELECT A DAY
Number of Records: 200,105;   Date Range: 1/2/95 - 12/25/14
 
SHARE

PRINT THIS DATA

[ ← Previous Day ]
WEATHER ALMANAC - JANUARY 31, 2013
[ Next Day → ]
[ °C ]   °F
Weather ElementAverageHighLow
Temperature44.8 °F48.9 °F (2:53 pm)41 °F (6:33 am)
Dewpoint39.9 °F42.8 °F (3:07 am)37.4 °F (6:33 am)
Humidity83.2 %93 % (3:07 am)71 % (12:53 pm)
Barometer30.42 in30.45 in (1:53 am)30.36 in (11:53 pm)
Wind Speed2.5 mph9.2 mph (6:53 am)
Weather ElementAverage
Visibility10 mi
Wind DirectionNNE (30.4 °)

Weather ElementTotal
Precipitation---
Heating Degree Days20.1 (Base 65)
Averaged from 28 records on January 31, 2013
WEATHER CONDITIONS BREAKOUT
WIND DIRECTION BREAKOUT
WEATHER BY HOUR - JANUARY 31, 2013
[ °C ]   °F
Local TimeTemperatureDewpointHumidityBarometerVisibilityWind DirectionWind SpeedGust SpeedPrecipitationEventsConditions
1:53 AM46.9 °F42.1 °F83 %30.45 in10.0 miCalmOvercast
2:53 AM45.0 °F42.1 °F90 %30.45 in10.0 miEast (100°)3.5 mphOvercast
3:07 AM44.6 °F42.8 °F93 %30.44 in10.0 miCalmOvercast
3:53 AM45.0 °F42.1 °F90 %30.44 in10.0 miENE (60°)4.6 mphOvercast
4:53 AM44.1 °F41.0 °F89 %30.43 in10.0 miENE (60°)4.6 mphOvercast
5:53 AM43.0 °F39.9 °F89 %30.43 in10.0 miNE (50°)6.9 mphOvercast
6:33 AM41.0 °F37.4 °F87 %30.43 in10.0 miNNE (30°)4.6 mphOvercast
6:41 AM41.0 °F37.4 °F87 %30.43 in10.0 miNE (50°)3.5 mphMostly Cloudy
6:49 AM41.0 °F37.4 °F87 %30.43 in10.0 miNE (50°)8.1 mphScattered Clouds
6:53 AM41.0 °F37.9 °F89 %30.44 in10.0 miNE (50°)9.2 mphScattered Clouds
7:02 AM41.0 °F37.4 °F87 %30.43 in10.0 miNE (40°)8.1 mphMostly Cloudy
7:53 AM41.0 °F37.9 °F89 %30.45 in10.0 miNE (50°)4.6 mphOvercast
8:38 AM42.8 °F39.2 °F87 %30.43 in10.0 miCalmOvercast
8:53 AM42.1 °F39.0 °F89 %30.44 in10.0 miCalmOvercast
9:53 AM43.0 °F39.0 °F86 %30.45 in10.0 miCalmOvercast
10:46 AM44.6 °F39.2 °F81 %30.43 in10.0 miCalmOvercast
10:53 AM45.0 °F39.9 °F82 %30.45 in10.0 miCalmOvercast
11:53 AM46.9 °F39.9 °F77 %30.43 in10.0 miCalmOvercast
12:53 PM48.0 °F39.0 °F71 %30.41 in10.0 miCalmOvercast
1:53 PM48.0 °F39.9 °F74 %30.40 in10.0 miVariable4.6 mphOvercast
2:53 PM48.9 °F39.9 °F71 %30.38 in10.0 miCalmOvercast
4:53 PM48.0 °F41.0 °F77 %30.39 in10.0 miCalmOvercast
5:53 PM48.0 °F41.0 °F77 %30.38 in10.0 miCalmOvercast
6:53 PM48.0 °F41.0 °F77 %30.38 in10.0 miCalmOvercast
7:53 PM48.0 °F41.0 °F77 %30.37 in10.0 miCalmOvercast
8:53 PM46.9 °F41.0 °F80 %30.37 in10.0 miSSE (150°)4.6 mphOvercast
10:53 PM46.0 °F41.0 °F83 %30.37 in10.0 miSSE (160°)3.5 mphOvercast
11:53 PM46.9 °F41.0 °F80 %30.36 in10.0 miCalmOvercast
Hourly data recorded from KRBG, located miles away from Sutherlin, Oregon







STORIES FROM OUR PARTNERS